Theta_e
330 334 338 343 343 337 338 336 330 329 325 320 320 323 323 324 328 335 328 324 324 323 323 320 319 319 314 319 317 316 318 318 319 318 318 319 318 319 318 318 317 319 317 317 317 317 316 310 312
330 333 337 336 337 336 339 332 331 325 321 320 319 320 319 324 323 327 327 323 322 321 322 321 312 317 309 319 313 311 315 317 317 317 318 317 319 318 317 317 315 315 316 316 316 316 312 305 301
329 333 335 336 334 337 337 332 327 322 319 319 320 318 318 321 321 325 324 321 321 320 320 321 308 311 310 310 313 306 306 315 318 317 317 318 317 317 315 315 316 314 316 316 315 314 312 302 300
332 335 333 333 335 335 333 330 323 321 319 318 318 320 318 319 321 323 322 320 320 320 319 315 306 313 312 308 308 306 301 309 317 316 317 317 316 314 314 314 314 315 314 314 314 313 305 301 301
333 334 335 335 334 332 331 325 322 320 319 318 317 319 319 318 321 321 321 319 319 318 318 319 309 309 320 307 305 303 301 301 312 305 311 302 304 303 304 304 307 312 309 310 311 312 304 302 300
334 333 335 335 334 331 329 323 322 321 318 318 318 317 320 319 319 319 320 319 317 316 316 320 306 306 315 304 302 301 301 300 300 301 302 301 301 301 301 302 303 308 304 304 302 302 302 301 301
333 335 333 334 334 331 329 323 322 321 320 319 317 318 318 318 319 318 319 318 316 315 316 318 319 309 304 303 301 301 301 301 300 300 301 300 300 300 300 300 302 302 302 302 302 301 302 301 301
332 333 334 332 333 333 327 323 322 321 321 318 318 319 319 318 318 318 318 317 315 315 314 316 318 318 318 316 302 301 301 301 301 301 300 300 301 301 300 302 300 300 300 301 301 301 301 302 301
330 333 333 332 332 331 325 323 322 320 320 319 318 318 318 319 317 318 318 317 316 315 315 315 316 316 317 317 311 302 301 301 301 301 301 301 305 303 301 301 300 300 300 300 301 301 301 301 302
331 333 332 330 329 326 325 323 323 321 320 320 319 317 317 319 318 318 318 317 316 316 314 315 314 315 314 313 313 309 307 304 304 302 302 302 303 303 300 301 300 300 300 300 300 301 301 302 304
329 331 328 327 326 325 324 323 322 321 321 320 320 319 317 318 319 318 318 317 316 316 315 314 312 314 312 312 312 312 307 304 302 301 301 301 300 302 302 302 302 301 300 302 301 301 303 302 301
326 325 325 325 323 324 324 322 321 321 321 320 318 318 317 318 318 318 318 317 316 316 315 314 312 309 310 310 307 311 308 304 302 302 301 301 301 301 301 301 301 300 301 300 300 300 300 301 303
322 322 320 319 318 318 318 319 320 320 319 320 318 317 317 317 318 318 317 317 316 315 315 313 309 309 309 309 309 309 310 307 304 303 301 301 301 301 301 301 301 300 300 300 300 300 300 301 303
320 318 317 317 317 317 317 318 317 318 317 317 318 317 317 317 317 317 316 316 315 315 314 314 312 305 307 308 307 306 305 306 304 303 302 302 301 301 302 302 301 300 300 300 300 300 299 300 301
318 319 319 319 319 320 318 319 320 318 316 317 316 316 317 317 317 317 317 316 315 315 314 313 313 310 305 305 306 304 303 303 303 302 302 302 302 302 302 301 301 301 300 300 300 300 300 300 300
320 321 324 322 319 319 317 322 320 318 318 318 318 316 317 317 317 316 316 315 314 314 314 313 312 309 307 305 304 304 304 303 303 303 303 303 302 301 301 301 301 301 301 300 300 300 300 300 301
322 323 321 320 318 319 319 322 320 316 317 318 318 318 316 317 316 316 316 315 314 313 313 313 312 308 308 306 305 305 305 305 304 304 304 304 303 303 302 302 302 302 301 301 301 301 300 300 300
323 322 320 320 319 318 319 320 321 319 318 318 318 318 318 316 316 316 315 315 315 313 312 312 311 309 308 307 306 305 305 305 305 305 305 305 305 304 304 304 304 303 302 302 302 301 301 301 301
317 318 319 319 318 317 320 320 320 319 319 319 318 318 318 317 317 316 316 315 314 313 312 312 311 310 309 308 307 306 306 306 306 306 306 306 306 306 306 305 305 305 304 304 303 302 302 302 302
319 319 320 319 317 316 319 320 321 321 320 319 319 319 318 317 317 317 316 315 314 313 312 311 310 310 309 308 307 307 307 307 307 308 308 308 308 308 307 307 306 306 305 305 305 304 303 303 302
320 319 319 318 318 319 319 321 322 321 319 318 317 318 318 318 318 317 316 316 315 314 313 311 311 310 310 309 308 308 308 308 309 310 310 310 309 309 308 308 307 307 307 306 306 305 305 304 304
320 317 316 317 319 322 319 323 323 321 320 319 318 317 317 317 317 317 317 316 316 314 314 312 312 311 310 310 309 309 310 310 311 311 311 311 311 310 310 309 309 308 307 307 307 306 306 305 305
319 316 317 318 320 322 323 320 323 322 321 321 319 319 317 317 316 316 317 317 316 315 314 313 312 312 311 310 310 310 311 312 312 311 312 312 311 311 311 310 310 309 308 308 307 307 306 305 305
316 317 319 321 323 325 324 321 325 323 322 321 320 319 317 316 316 317 317 316 316 315 314 313 313 312 311 311 311 312 312 312 312 312 312 311 311 312 312 311 311 310 309 309 308 307 306 306 305
316 319 324 329 328 326 321 320 323 324 322 322 320 318 317 317 316 317 316 316 315 314 314 313 312 312 312 312 312 312 312 312 312 312 312 311 311 311 311 312 312 311 311 310 309 308 307 306 306
318 320 323 329 328 327 320 324 325 324 321 320 319 319 318 317 316 317 316 315 314 314 313 313 312 313 313 313 313 313 313 313 313 313 313 313 312 312 312 312 312 312 311 310 309 309 308 307 306
318 318 319 322 323 323 326 326 325 320 320 319 319 319 319 318 317 317 316 315 314 314 313 313 313 313 313 313 313 313 314 314 313 313 313 313 313 313 312 312 312 311 310 309 308 308 308 308 307
316 317 318 319 327 330 328 327 327 322 320 319 319 320 321 320 319 318 316 314 314 314 313 313 314 314 314 314 315 315 315 316 319 320 320 318 316 313 312 311 311 310 309 308 308 308 308 308 307
315 316 317 320 324 330 332 331 326 326 322 320 320 320 322 321 320 319 318 316 315 315 315 315 315 315 315 316 317 318 320 321 322 322 321 320 319 317 315 312 311 310 309 308 308 308 308 308 307
315 317 318 321 326 323 328 331 323 325 325 322 320 321 322 322 321 320 319 318 317 317 316 316 317 317 318 319 320 321 322 321 322 321 321 320 318 317 316 314 312 310 309 308 308 308 308 308 308
Wind_Speed
7 8 7 4 6 5 3 5 1 4 2 6 4 6 9 10 9 4 9 7 11 11 7 6 6 5 7 6 3 8 7 10 8 9 8 12 11 12 13 12 13 14 14 14 15 14 13 15 14
6 8 5 6 6 6 7 3 7 7 7 4 2 2 1 7 8 9 8 11 11 10 9 6 3 5 5 4 5 7 6 10 8 8 9 10 11 12 11 11 12 12 15 14 14 13 14 17 17
6 6 9 4 4 6 5 4 7 8 5 1 1 3 3 6 5 9 7 13 11 10 9 7 4 3 5 3 5 6 6 9 7 7 7 9 9 10 10 11 12 12 14 11 12 13 14 17 18
4 5 7 8 6 4 4 7 7 6 2 0 1 5 5 5 5 6 11 13 11 10 8 6 3 4 5 2 3 4 6 8 6 8 6 7 8 7 8 10 11 11 11 12 12 13 14 16 17
4 7 8 5 1 1 4 7 4 3 3 3 1 5 3 4 8 9 13 12 11 10 8 4 5 3 6 1 2 3 5 5 5 5 4 6 7 8 9 9 10 10 11 10 10 11 12 14 16
9 7 8 8 5 3 5 6 4 1 2 4 2 2 5 7 9 10 12 11 10 10 9 5 4 3 4 0 1 3 4 4 4 4 4 6 7 7 8 8 9 8 9 10 11 11 13 14 15
11 6 10 6 1 6 4 5 3 1 2 3 2 1 4 8 9 10 12 11 10 9 9 8 4 3 2 1 1 1 2 3 4 4 4 6 7 7 7 7 8 8 8 9 9 10 11 12 13
6 5 6 6 5 4 5 6 1 3 6 3 2 3 5 10 11 12 13 12 11 9 9 8 8 5 3 5 2 2 2 2 2 3 4 4 5 7 7 8 9 9 8 9 9 9 9 10 11
3 6 7 5 4 5 7 6 3 1 3 5 4 1 7 13 11 14 14 13 11 10 10 9 8 8 7 6 6 3 2 3 3 3 3 5 5 7 7 7 8 9 9 9 10 9 10 10 9
7 8 1 6 4 1 6 6 5 5 7 7 7 5 8 12 13 15 15 15 14 13 12 10 10 9 8 7 7 3 5 3 4 4 5 3 4 5 6 8 8 8 9 9 9 9 9 10 6
3 5 6 3 2 1 3 5 6 8 7 8 8 12 12 13 14 15 15 15 15 14 13 13 12 11 10 8 7 6 6 6 5 6 6 5 5 6 7 7 9 10 10 8 11 11 8 7 7
5 1 2 3 2 2 5 3 7 11 10 2 4 5 14 15 16 16 16 15 15 16 15 13 13 12 11 10 9 8 8 8 6 7 7 7 6 5 6 7 8 8 8 8 8 7 9 8 9
4 3 1 2 2 3 3 8 9 10 10 9 7 9 12 13 15 15 15 15 16 16 16 15 15 13 12 11 10 9 8 9 8 9 8 8 8 7 7 8 9 9 9 9 9 10 9 8 8
2 3 3 4 4 4 5 7 2 3 9 13 12 12 13 14 15 15 16 17 17 16 16 15 15 15 14 13 12 10 10 10 10 11 10 10 9 9 9 9 10 10 11 11 11 11 12 11 10
3 5 5 7 6 4 4 10 11 9 8 8 12 14 15 16 16 18 16 17 16 16 16 16 16 16 15 14 13 13 13 12 12 12 12 12 12 11 11 11 12 12 12 13 13 13 13 13 12
5 6 8 7 5 4 3 4 10 9 10 9 10 12 16 17 17 17 17 17 17 16 17 17 17 17 16 14 14 14 14 14 14 13 13 13 13 13 14 14 14 15 15 15 15 14 14 14 14
7 2 3 6 5 1 7 7 8 9 10 10 10 12 14 16 17 18 18 17 17 17 17 18 17 16 15 15 15 14 15 15 14 14 14 14 14 15 15 15 16 16 17 17 16 16 16 16 15
2 4 2 4 5 7 10 14 12 13 14 16 16 16 15 16 18 17 18 18 18 18 18 17 17 17 16 16 16 17 17 17 16 16 15 15 15 15 16 16 17 17 19 18 18 18 17 18 18
5 5 6 3 3 4 9 11 11 12 14 15 15 16 18 18 16 16 18 19 19 19 20 20 18 17 18 19 18 17 17 16 17 17 16 16 16 17 18 18 18 19 20 19 19 19 20 20 19
5 7 6 3 0 4 10 14 13 13 13 12 11 14 17 17 16 16 17 19 20 19 20 20 19 19 19 19 17 17 15 15 16 16 16 16 17 18 19 19 19 20 21 22 21 20 21 22 19
6 7 7 6 9 12 10 12 12 11 11 10 10 10 13 17 18 18 18 19 19 19 19 18 18 18 19 18 18 18 18 18 17 16 17 17 18 18 20 21 21 22 23 24 23 23 23 23 20
9 4 3 5 7 3 1 4 11 13 12 12 13 13 13 15 17 18 19 20 20 19 18 17 17 18 18 18 19 18 17 16 15 15 16 17 18 20 21 23 24 25 26 27 26 25 26 25 25
4 1 3 5 8 9 9 5 3 13 11 12 14 13 12 13 15 19 20 19 18 18 19 17 17 18 18 18 17 17 17 16 16 18 20 20 22 22 23 23 25 26 28 29 29 28 27 28 27
3 4 6 5 4 6 11 8 8 9 15 13 14 13 12 13 14 14 16 17 18 20 19 19 19 18 18 18 17 18 18 18 20 22 24 24 25 26 25 25 25 25 28 29 30 30 31 31 31
6 6 3 4 5 3 4 5 9 7 7 13 16 16 15 14 14 15 17 19 20 20 19 18 18 17 17 18 18 18 19 21 24 25 27 28 27 27 27 27 26 26 26 28 29 31 32 32 32
13 8 6 5 3 2 4 7 3 5 11 11 16 17 16 15 14 15 16 18 19 18 18 17 16 16 16 16 17 18 19 20 22 23 24 24 25 25 25 26 26 25 26 27 28 29 30 31 33
7 7 3 5 3 4 6 7 6 8 11 14 17 17 16 16 15 15 16 17 18 18 17 16 16 15 15 15 15 14 14 15 15 16 18 20 21 21 22 23 24 25 25 26 27 29 29 30 30
6 4 4 5 4 5 7 7 5 14 18 16 18 19 17 16 16 15 16 17 16 16 16 16 15 14 13 12 10 8 7 7 11 15 18 21 22 22 22 23 23 24 24 25 26 27 28 29 29
7 6 7 4 4 3 3 3 4 14 19 20 22 22 20 19 18 16 16 17 18 17 16 15 14 13 11 9 7 4 1 6 10 15 19 21 22 22 24 24 24 25 25 24 25 26 27 29 29
10 13 16 5 5 4 3 5 1 3 14 21 23 23 21 20 18 17 18 19 20 19 18 16 15 13 12 10 8 5 2 5 11 17 21 23 23 23 23 23 24 25 25 24 24 25 26 28 29
Wind_Direction
336 331 303 288 259 248 78 76 51 58 114 46 35 360 22 32 6 34 146 125 134 134 144 123 141 128 111 92 86 85 71 88 58 59 49 50 51 56 50 49 55 50 47 48 56 43 43 40 42
335 327 297 277 266 277 91 92 65 51 78 67 50 334 53 74 54 113 132 141 139 136 135 132 139 124 112 99 80 99 87 95 68 63 61 58 47 52 51 52 46 54 54 42 47 47 36 37 33
324 299 273 283 278 349 30 56 94 96 91 46 104 24 28 68 83 129 140 143 146 139 142 190 174 151 121 104 102 91 86 93 83 66 66 59 61 53 47 49 51 40 55 53 36 43 35 35 33
316 247 244 254 303 78 16 95 103 123 114 79 357 114 97 87 129 155 147 147 145 145 143 207 167 155 121 99 92 81 74 105 96 106 73 67 72 53 56 51 47 46 44 45 40 36 33 33 34
279 259 263 246 201 76 83 103 128 115 103 122 278 90 84 137 132 133 147 149 153 148 156 160 167 164 134 93 72 51 52 83 100 105 87 61 51 48 46 49 50 46 41 44 43 33 32 31 31
245 263 251 246 163 119 123 139 131 68 110 105 204 128 100 155 148 148 157 155 159 160 152 196 205 174 164 276 9 13 24 30 27 25 34 34 36 36 37 40 42 41 35 33 29 24 25 25 28
251 233 261 301 176 187 142 155 204 116 125 108 33 232 110 164 160 165 164 164 164 166 159 157 166 213 218 240 283 336 344 354 355 356 357 11 13 15 21 19 25 22 22 22 25 22 17 20 26
260 273 246 240 192 197 132 162 106 237 87 107 209 198 150 172 165 162 166 174 172 174 171 174 172 175 192 286 249 269 280 300 320 336 346 341 349 3 3 359 2 7 7 6 10 12 14 17 23
240 248 228 193 218 118 151 197 168 160 191 194 197 262 131 163 165 167 175 182 185 188 185 186 188 188 188 189 260 272 259 290 294 311 335 334 359 330 346 348 342 350 354 355 359 1 2 3 21
235 239 253 46 47 176 173 226 161 216 200 208 202 177 157 171 174 183 187 192 197 197 197 194 195 199 201 205 236 225 261 293 291 296 298 320 303 292 314 319 330 336 341 341 348 350 351 10 342
192 298 101 99 66 10 197 226 220 231 243 236 215 204 186 186 191 197 201 203 204 202 202 200 203 203 210 209 220 229 246 254 264 269 274 279 284 301 315 312 331 333 334 343 339 343 345 330 333
218 73 20 129 114 222 239 263 241 235 247 172 201 191 189 196 201 204 206 205 204 204 205 207 207 211 211 215 228 227 239 252 261 267 271 273 277 277 275 289 288 306 306 312 317 312 312 322 317
245 154 170 155 192 241 268 252 260 257 234 224 210 197 201 204 207 209 209 208 206 208 207 209 217 212 216 219 226 228 235 255 258 269 274 273 276 277 280 288 292 294 296 302 302 304 304 308 292
114 191 170 195 210 234 257 257 263 223 213 221 216 214 213 213 210 208 207 208 208 207 211 210 217 223 221 219 229 232 241 247 253 262 269 276 275 279 281 282 285 288 290 291 294 295 296 297 296
190 216 196 213 218 247 273 251 230 227 190 206 215 221 216 215 211 211 212 210 211 212 209 212 217 225 228 229 232 242 245 250 257 263 267 269 271 274 275 279 282 286 285 292 292 295 296 297 297
229 234 215 144 196 169 231 97 190 180 198 220 220 218 214 215 216 215 214 212 210 210 212 212 218 224 235 235 241 245 253 256 259 264 268 272 276 278 279 280 282 286 289 291 292 293 292 294 292
204 283 220 163 205 246 227 316 148 198 213 229 225 221 217 218 218 216 214 212 209 208 212 213 222 227 230 238 240 248 255 260 266 267 271 277 280 282 282 283 284 284 286 290 290 288 289 288 286
22 264 184 280 139 231 254 261 262 221 227 241 243 234 221 218 219 215 211 210 210 211 210 216 220 228 230 234 240 247 253 261 266 270 273 277 281 284 283 284 284 282 283 287 287 287 284 283 286
322 297 283 289 94 286 255 265 262 248 230 240 241 230 220 217 214 209 210 209 210 214 218 218 220 226 225 232 238 247 257 263 265 269 271 275 279 282 283 284 283 283 283 284 283 283 285 287 289
289 292 289 269 16 272 286 279 266 242 225 231 232 220 214 209 202 201 202 205 212 218 223 227 229 231 235 237 242 246 252 259 263 272 278 279 280 279 279 281 283 282 283 285 283 278 280 283 283
250 288 321 308 316 248 282 265 222 206 207 211 221 216 208 207 204 206 205 207 214 214 222 227 229 231 235 236 239 242 245 255 265 275 278 281 278 277 279 280 281 281 281 283 283 283 280 279 275
285 52 299 301 308 307 301 313 190 175 202 204 209 203 206 206 207 208 208 207 212 218 216 224 224 227 230 232 235 240 248 261 274 280 284 285 282 280 278 279 279 278 278 279 280 279 279 276 276
23 14 292 296 288 302 212 249 173 178 203 200 199 187 192 196 201 204 205 208 210 216 219 223 225 228 231 234 236 242 250 264 273 276 281 286 288 289 286 283 280 279 277 276 276 276 274 275 273
106 241 240 264 268 250 215 226 189 186 210 191 182 179 181 185 190 192 198 200 204 215 218 221 226 230 233 236 241 247 258 268 274 281 284 288 290 291 291 289 285 283 278 277 277 275 272 270 271
217 245 218 213 202 260 141 212 281 151 190 183 177 179 181 183 184 185 190 195 201 212 215 220 224 228 234 241 247 256 266 274 280 284 286 288 289 290 291 290 289 287 284 280 276 275 275 272 268
204 248 271 274 226 117 170 227 216 196 167 174 178 177 179 184 187 188 194 201 206 211 213 218 223 226 234 244 253 262 272 281 288 292 293 294 293 292 290 289 290 290 289 287 281 277 276 272 270
156 218 12 288 223 268 206 230 213 182 181 177 176 178 189 190 190 190 194 199 205 210 213 216 220 225 234 244 252 265 279 290 301 307 309 309 305 301 295 291 290 291 290 287 284 282 280 277 275
263 357 196 215 248 240 205 248 238 187 194 189 189 193 194 192 191 190 194 198 201 206 209 209 211 216 225 236 250 263 282 317 332 329 324 317 312 307 303 299 295 293 291 289 285 283 281 277 276
191 223 224 298 263 273 292 205 29 198 198 192 194 194 193 193 194 194 196 201 202 204 206 205 208 212 218 220 226 225 301 342 341 337 329 322 317 311 305 302 300 298 296 291 285 285 284 280 280
275 227 219 243 198 248 321 283 31 303 195 196 196 196 197 197 196 197 196 200 203 205 205 205 204 204 207 207 205 197 245 323 334 336 335 329 322 316 312 307 303 301 299 295 291 289 286 284 284